<?xml version="1.0"?>
<gpx xmlns="http://www.topografix.com/GPX/1/1" xmlns:xsi="http://www.w3.org/2001/XMLSchema-instance" version="1.1" creator="GPX RubyGem 1.0.0 -- http://dougfales.github.io/gpx/" xsi:schemaLocation="http://www.topografix.com/GPX/1/1 http://www.topografix.com/GPX/1/1/gpx.xsd">
  <metadata>
    <name/>
    <time>2026-05-07T15:34:10+00:00</time>
    <bound minlat="90.0" minlon="180.0" maxlat="-90.0" maxlon="-180.0"/>
  </metadata>
  <trk>
    <name/>
    <trkseg>
      <trkpt lat="47.75292" lon="12.663847">
        <time>1970-01-01T00:00:00+00:00</time>
        <ele>663.0</ele>
      </trkpt>
      <trkpt lat="47.752935" lon="12.663918">
        <time>1970-01-01T00:00:00+00:00</time>
        <ele>663.0</ele>
      </trkpt>
      <trkpt lat="47.752921" lon="12.664314">
        <time>1970-01-01T00:00:00+00:00</time>
        <ele>663.0</ele>
      </trkpt>
      <trkpt lat="47.752912" lon="12.664599">
        <time>1970-01-01T00:00:00+00:00</time>
        <ele>663.0</ele>
      </trkpt>
      <trkpt lat="47.752776" lon="12.664802">
        <time>1970-01-01T00:00:00+00:00</time>
        <ele>664.0</ele>
      </trkpt>
      <trkpt lat="47.752656" lon="12.664868">
        <time>1970-01-01T00:00:00+00:00</time>
        <ele>664.0</ele>
      </trkpt>
      <trkpt lat="47.752541" lon="12.664907">
        <time>1970-01-01T00:00:00+00:00</time>
        <ele>664.0</ele>
      </trkpt>
      <trkpt lat="47.751605" lon="12.664924">
        <time>1970-01-01T00:00:00+00:00</time>
        <ele>664.0</ele>
      </trkpt>
      <trkpt lat="47.751294" lon="12.665143">
        <time>1970-01-01T00:00:00+00:00</time>
        <ele>664.0</ele>
      </trkpt>
      <trkpt lat="47.751099" lon="12.665318">
        <time>1970-01-01T00:00:00+00:00</time>
        <ele>664.0</ele>
      </trkpt>
      <trkpt lat="47.751023" lon="12.665429">
        <time>1970-01-01T00:00:00+00:00</time>
        <ele>664.0</ele>
      </trkpt>
      <trkpt lat="47.751023" lon="12.665429">
        <time>1970-01-01T00:00:00+00:00</time>
        <ele>664.0</ele>
      </trkpt>
      <trkpt lat="47.751099" lon="12.665318">
        <time>1970-01-01T00:00:00+00:00</time>
        <ele>664.0</ele>
      </trkpt>
      <trkpt lat="47.751294" lon="12.665143">
        <time>1970-01-01T00:00:00+00:00</time>
        <ele>664.0</ele>
      </trkpt>
      <trkpt lat="47.751605" lon="12.664924">
        <time>1970-01-01T00:00:00+00:00</time>
        <ele>664.0</ele>
      </trkpt>
      <trkpt lat="47.752541" lon="12.664907">
        <time>1970-01-01T00:00:00+00:00</time>
        <ele>664.0</ele>
      </trkpt>
      <trkpt lat="47.752656" lon="12.664868">
        <time>1970-01-01T00:00:00+00:00</time>
        <ele>664.0</ele>
      </trkpt>
      <trkpt lat="47.752776" lon="12.664802">
        <time>1970-01-01T00:00:00+00:00</time>
        <ele>664.0</ele>
      </trkpt>
      <trkpt lat="47.752912" lon="12.664599">
        <time>1970-01-01T00:00:00+00:00</time>
        <ele>663.0</ele>
      </trkpt>
      <trkpt lat="47.752921" lon="12.664314">
        <time>1970-01-01T00:00:00+00:00</time>
        <ele>663.0</ele>
      </trkpt>
      <trkpt lat="47.752935" lon="12.663918">
        <time>1970-01-01T00:00:00+00:00</time>
        <ele>663.0</ele>
      </trkpt>
      <trkpt lat="47.75292" lon="12.663847">
        <time>1970-01-01T00:00:00+00:00</time>
        <ele>663.0</ele>
      </trkpt>
    </trkseg>
  </trk>
</gpx>
